Location: Eschentzwiller
(47.7125°N, 7.3981°E)
Time: 04:38:42
(UTC+00:00)

SL-4 R/B - Pass Details

Date: 27 October 2020
Orbit: 427 x 665 km, 51.6° (Epoch: 01 December)

Event Time Altitude Azimuth Distance (km) Brightness Sun altitude
Rises 17:41:12 0° 285° (WNW) 2,433 6.8 -14.2°
Reaches altitude 10° 17:43:20 10° 292° (WNW) 1,586 5.4 -14.5°
Maximum altitude 17:46:47 45° 7° (N) 649 2.3 -15.1°
Enters shadow 17:48:16 29° 62° (ENE) 916 2.6 -15.4°
